Simultaneous Nadir Overpasses (SNOs) Predictions

Prediction of SNOs between AQUA and METOP-C Satellite Orbit:

Table of predicted SNOs for the next 14.0 days since TLE Epoch: 12/26/2020
Index Date (AQUA) Time (AQUA) Lat,Lon (AQUA) SZA (AQUA ) Date (METOP-C) Time (METOP-C) Lat,Lon (METOP-C) SZA (METOP-C ) Distance(km) Time Diff (sec)
1 12/26/2020 06:33:00 73.58, 76.45 96.90 12/26/2020 06:31:48 73.52, 76.03 96.87 14.81 72
2 12/26/2020 07:22:28 -73.72,-116.21 82.95 12/26/2020 07:22:25 -73.73,-116.18 82.95 1.17 3
3 12/26/2020 08:11:57 73.79, 51.29 97.12 12/26/2020 08:13:04 73.80, 51.34 97.13 2.63 67
4 12/29/2020 02:07:17 73.66, 142.71 96.86 12/29/2020 02:06:09 73.64, 142.70 96.85 2.92 68
5 12/29/2020 02:56:44 -73.75, -49.83 83.06 12/29/2020 02:56:48 -73.75, -49.72 83.06 3.43 4
6 12/29/2020 03:46:14 73.87, 117.54 97.07 12/29/2020 03:47:26 73.87, 117.90 97.06 11.09 72
7 12/31/2020 21:41:31 73.65,-150.82 96.66 12/31/2020 21:40:31 73.65,-150.87 96.67 1.39 60
8 12/31/2020 22:30:58 -73.73, 16.65 83.27 12/31/2020 22:31:11 -73.72, 16.62 83.28 1.85 13
9 12/31/2020 23:20:34 74.17,-176.70 97.20 12/31/2020 23:21:42 74.18,-174.93 97.15 53.49 68
10 01/03/2021 17:15:46 73.65, -84.38 96.40 01/03/2021 17:14:54 73.66, -84.44 96.42 2.27 52
11 01/03/2021 18:05:13 -73.72, 83.11 83.53 01/03/2021 18:05:34 -73.73, 83.06 83.52 2.24 21
12 01/03/2021 18:54:55 74.47,-110.98 97.28 01/03/2021 18:56:00 74.43,-107.88 97.14 92.68 65
13 01/06/2021 12:50:01 73.65, -17.95 96.10 01/06/2021 12:49:17 73.66, -18.02 96.12 2.54 44
14 01/06/2021 13:39:29 -73.77, 149.44 83.79 01/06/2021 13:39:57 -73.75, 149.50 83.81 2.99 28



Historial Predications of SNOs between AQUA and METOP-C
